�������l�o���
Date,Time,MP-1(��Sv/h),MP-2(��Sv/h),MP-3(��Sv/h),MP-4(��Sv/h),MP-5(��Sv/h),MP-6(��Sv/h),MP-7(��Sv/h),����,����(m/s),���J
2020/11/08,00:00,0.178,0.158,0.257,0.243,0.245,0.141,0.085,�k�k��,4.6,��
2020/11/08,00:10,0.179,0.157,0.257,0.243,0.244,0.139,0.085,�k,4.2,��
2020/11/08,00:20,0.178,0.157,0.258,0.244,0.245,0.140,0.085,�k,4.0,��
2020/11/08,00:30,0.180,0.157,0.256,0.245,0.246,0.140,0.085,�k,4.9,��
2020/11/08,00:40,0.178,0.159,0.258,0.243,0.245,0.140,0.085,�k,5.2,��
2020/11/08,00:50,0.180,0.157,0.257,0.244,0.245,0.139,0.085,�k,5.0,��
2020/11/08,01:00,0.178,0.158,0.258,0.243,0.245,0.139,0.084,�k,4.8,��
2020/11/08,01:10,0.179,0.158,0.256,0.244,0.244,0.140,0.084,�k,3.9,��
2020/11/08,01:20,0.179,0.158,0.258,0.242,0.245,0.140,0.085,�k,4.6,��
2020/11/08,01:30,0.179,0.158,0.258,0.244,0.246,0.141,0.085,�k,5.8,��
2020/11/08,01:40,0.179,0.158,0.258,0.243,0.245,0.139,0.084,�k,5.2,��
2020/11/08,01:50,0.178,0.159,0.257,0.243,0.246,0.140,0.084,�k,5.4,��
2020/11/08,02:00,0.179,0.158,0.257,0.244,0.244,0.139,0.084,�k,4.8,��
2020/11/08,02:10,0.179,0.159,0.257,0.243,0.247,0.140,0.085,�k,3.7,��
2020/11/08,02:20,0.178,0.158,0.256,0.246,0.244,0.140,0.085,�k,3.9,��
2020/11/08,02:30,0.178,0.158,0.257,0.244,0.246,0.140,0.084,�k,5.2,��
2020/11/08,02:40,0.179,0.158,0.257,0.244,0.244,0.140,0.084,�k,4.3,��
2020/11/08,02:50,0.178,0.157,0.257,0.244,0.245,0.139,0.084,�k,3.9,��
2020/11/08,03:00,0.180,0.158,0.257,0.242,0.244,0.140,0.085,�k�k��,3.7,��
2020/11/08,03:10,0.178,0.158,0.256,0.244,0.245,0.139,0.084,�k,3.7,��
2020/11/08,03:20,0.179,0.158,0.257,0.242,0.244,0.138,0.085,�k,3.8,��
2020/11/08,03:30,0.178,0.157,0.256,0.243,0.245,0.139,0.084,�k,3.7,��
2020/11/08,03:40,0.179,0.158,0.256,0.242,0.245,0.139,0.084,�k�k��,5.2,��
2020/11/08,03:50,0.178,0.158,0.255,0.242,0.244,0.140,0.085,�k�k��,2.8,��
2020/11/08,04:00,0.180,0.157,0.257,0.244,0.244,0.140,0.084,�k,3.9,��
2020/11/08,04:10,0.178,0.158,0.256,0.241,0.244,0.139,0.084,�k��,4.3,��
2020/11/08,04:20,0.179,0.158,0.257,0.243,0.245,0.138,0.084,�k��,6.5,��
2020/11/08,04:30,0.178,0.157,0.256,0.242,0.244,0.139,0.084,�k��,9.0,��
2020/11/08,04:40,0.179,0.157,0.255,0.243,0.244,0.139,0.084,���k��,8.8,��
2020/11/08,04:50,0.177,0.157,0.256,0.244,0.244,0.139,0.084,�k��,8.8,��
2020/11/08,05:00,0.179,0.157,0.256,0.242,0.245,0.139,0.084,�k��,8.4,��
2020/11/08,05:10,0.178,0.157,0.256,0.244,0.245,0.140,0.084,�k��,8.4,��
2020/11/08,05:20,0.178,0.158,0.255,0.242,0.245,0.139,0.084,�k��,8.1,��
2020/11/08,05:30,0.178,0.157,0.258,0.242,0.244,0.139,0.084,�k�k��,4.8,��
2020/11/08,05:40,0.178,0.158,0.254,0.242,0.244,0.140,0.084,�k�k��,5.2,��
2020/11/08,05:50,0.177,0.157,0.257,0.244,0.244,0.139,0.084,�k�k��,5.0,��
2020/11/08,06:00,0.180,0.157,0.255,0.242,0.246,0.140,0.084,�k�k��,5.3,��
2020/11/08,06:10,0.177,0.157,0.257,0.244,0.244,0.139,0.084,�k,5.6,��
2020/11/08,06:20,0.179,0.158,0.256,0.244,0.244,0.138,0.083,�k�k��,6.0,��
2020/11/08,06:30,0.178,0.157,0.256,0.243,0.243,0.138,0.084,�k�k��,6.4,��
2020/11/08,06:40,0.179,0.157,0.256,0.243,0.245,0.140,0.084,�k�k��,4.5,��
2020/11/08,06:50,0.177,0.157,0.257,0.242,0.243,0.139,0.084,�k�k��,4.5,��
2020/11/08,07:00,0.179,0.157,0.257,0.245,0.246,0.139,0.085,�k��,4.2,��
2020/11/08,07:10,0.176,0.157,0.257,0.243,0.244,0.138,0.084,�k��,5.2,��
2020/11/08,07:20,0.180,0.158,0.257,0.244,0.245,0.139,0.084,�k��,4.1,��
2020/11/08,07:30,0.179,0.158,0.256,0.241,0.244,0.139,0.084,�k��,4.2,��
2020/11/08,07:40,0.179,0.157,0.257,0.245,0.245,0.139,0.084,�k�k��,5.2,��
2020/11/08,07:50,0.178,0.158,0.256,0.242,0.243,0.140,0.084,�k�k��,4.8,��
2020/11/08,08:00,0.179,0.156,0.258,0.244,0.245,0.139,0.084,�k�k��,5.5,��
2020/11/08,08:10,0.178,0.158,0.255,0.242,0.243,0.140,0.084,�k��,5.7,��
2020/11/08,08:20,0.179,0.158,0.257,0.244,0.245,0.139,0.084,�k��,5.3,��
2020/11/08,08:30,0.177,0.158,0.256,0.241,0.244,0.140,0.084,�k��,6.0,��
2020/11/08,08:40,0.180,0.157,0.257,0.243,0.243,0.140,0.084,���k��,5.0,��
2020/11/08,08:50,0.178,0.158,0.255,0.241,0.246,0.140,0.085,���k��,6.0,��
2020/11/08,09:00,0.179,0.157,0.257,0.242,0.244,0.139,0.084,���k��,5.1,��
2020/11/08,09:10,0.178,0.158,0.256,0.242,0.246,0.139,0.085,�k��,2.3,��
2020/11/08,09:20,0.179,0.157,0.258,0.244,0.243,0.140,0.084,�k��,6.7,��
2020/11/08,09:30,0.178,0.158,0.256,0.243,0.246,0.138,0.084,�k��,8.3,��
2020/11/08,09:40,0.177,0.156,0.258,0.242,0.243,0.139,0.084,���k��,5.0,��
2020/11/08,09:50,0.179,0.158,0.256,0.243,0.243,0.140,0.085,���k��,5.1,��
2020/11/08,10:00,0.177,0.159,0.259,0.241,0.244,0.139,0.084,���k��,6.2,��
2020/11/08,10:10,0.177,0.157,0.256,0.244,0.243,0.140,0.084,�k��,6.7,��
2020/11/08,10:20,0.179,0.158,0.254,0.242,0.242,0.139,0.085,���k��,9.0,��
2020/11/08,10:30,0.179,0.157,0.256,0.241,0.244,0.138,0.084,���k��,6.4,��
2020/11/08,10:40,0.177,0.156,0.255,0.242,0.243,0.139,0.083,�k��,8.7,��
2020/11/08,10:50,0.180,0.158,0.255,0.244,0.242,0.139,0.084,���k��,6.2,��
2020/11/08,11:00,0.179,0.158,0.257,0.243,0.245,0.139,0.085,�k��,6.0,��
2020/11/08,11:10,0.178,0.157,0.255,0.241,0.246,0.139,0.084,���k��,6.7,��
2020/11/08,11:20,0.177,0.159,0.256,0.244,0.243,0.139,0.084,���k��,4.8,��
2020/11/08,11:30,0.179,0.157,0.258,0.244,0.243,0.139,0.085,���k��,5.7,��
2020/11/08,11:40,0.179,0.157,0.257,0.242,0.243,0.140,0.084,���k��,5.3,��
2020/11/08,11:50,0.177,0.157,0.254,0.242,0.245,0.140,0.085,���k��,7.1,��
2020/11/08,12:00,0.176,0.159,0.255,0.244,0.244,0.139,0.084,���k��,5.4,��
2020/11/08,12:10,0.179,0.159,0.257,0.243,0.244,0.140,0.084,���k��,5.2,��
2020/11/08,12:20,0.180,0.157,0.256,0.242,0.242,0.140,0.085,�k��,3.8,��
2020/11/08,12:30,0.178,0.158,0.254,0.242,0.246,0.139,0.084,��,5.3,��
2020/11/08,12:40,0.177,0.158,0.258,0.245,0.245,0.139,0.084,���k��,5.4,��
2020/11/08,12:50,0.177,0.158,0.257,0.243,0.244,0.141,0.084,���k��,8.1,��
2020/11/08,13:00,0.179,0.157,0.255,0.242,0.242,0.139,0.085,��,7.2,��
2020/11/08,13:10,0.180,0.158,0.258,0.241,0.246,0.141,0.084,���k��,8.1,��
2020/11/08,13:20,0.179,0.158,0.257,0.244,0.246,0.140,0.083,���k��,7.6,��
2020/11/08,13:30,0.178,0.157,0.255,0.244,0.243,0.139,0.085,��,9.5,��
2020/11/08,13:40,0.180,0.158,0.258,0.242,0.242,0.140,0.084,��,10.7,��
2020/11/08,13:50,0.180,0.158,0.257,0.244,0.242,0.140,0.084,��,10.0,��
2020/11/08,14:00,0.178,0.158,0.257,0.244,0.246,0.139,0.084,��,8.5,��
2020/11/08,14:10,0.179,0.156,0.259,0.242,0.244,0.140,0.084,���쐼,5.8,��
2020/11/08,14:20,0.180,0.159,0.256,0.245,0.245,0.140,0.084,��,4.4,��
2020/11/08,14:30,0.177,0.158,0.258,0.246,0.246,0.140,0.084,���쐼,4.2,��
2020/11/08,14:40,0.181,0.157,0.256,0.242,0.244,0.139,0.085,���쐼,3.9,��
2020/11/08,14:50,0.179,0.159,0.259,0.245,0.246,0.140,0.084,��,4.3,��
2020/11/08,15:00,0.178,0.159,0.258,0.245,0.245,0.139,0.085,��,7.2,��
2020/11/08,15:10,0.180,0.157,0.257,0.244,0.245,0.140,0.084,���쐼,6.3,��
2020/11/08,15:20,0.178,0.158,0.258,0.245,0.247,0.140,0.083,���쐼,7.3,��
2020/11/08,15:30,0.180,0.157,0.257,0.243,0.244,0.140,0.085,���쐼,5.0,��
2020/11/08,15:40,0.179,0.158,0.259,0.245,0.246,0.140,0.084,�쐼,3.6,��
2020/11/08,15:50,0.178,0.158,0.256,0.243,0.245,0.140,0.085,�쐼,1.6,��
2020/11/08,16:00,0.180,0.159,0.259,0.245,0.246,0.140,0.084,��,4.0,��
2020/11/08,16:10,0.178,0.159,0.257,0.244,0.246,0.139,0.085,��쐼,3.0,��
2020/11/08,16:20,0.179,0.159,0.260,0.245,0.245,0.141,0.084,��쐼,2.8,��
2020/11/08,16:30,0.178,0.157,0.257,0.244,0.246,0.140,0.084,��쐼,2.9,��
2020/11/08,16:40,0.180,0.159,0.259,0.246,0.244,0.140,0.084,���쐼,3.5,��
2020/11/08,16:50,0.179,0.158,0.257,0.244,0.244,0.140,0.085,�k��,3.9,��
2020/11/08,17:00,0.181,0.158,0.259,0.246,0.244,0.140,0.085,�k��,3.6,��
2020/11/08,17:10,0.179,0.159,0.259,0.243,0.247,0.140,0.085,���k��,7.9,��
2020/11/08,17:20,0.179,0.158,0.258,0.244,0.246,0.140,0.084,��,7.1,��
2020/11/08,17:30,0.179,0.159,0.259,0.243,0.246,0.140,0.085,��,8.7,��
2020/11/08,17:40,0.180,0.158,0.259,0.245,0.244,0.140,0.084,���k��,8.4,��
2020/11/08,17:50,0.179,0.158,0.259,0.244,0.246,0.140,0.085,���k��,7.2,��
2020/11/08,18:00,0.179,0.159,0.258,0.244,0.247,0.141,0.085,���k��,8.7,��
2020/11/08,18:10,0.180,0.158,0.258,0.245,0.246,0.140,0.084,���k��,8.5,��
2020/11/08,18:20,0.179,0.159,0.258,0.245,0.246,0.140,0.085,���k��,9.8,��
2020/11/08,18:30,0.180,0.158,0.258,0.245,0.245,0.140,0.085,��,12.5,��
2020/11/08,18:40,0.180,0.158,0.259,0.244,0.246,0.140,0.085,��,11.8,��
2020/11/08,18:50,0.181,0.159,0.258,0.245,0.244,0.139,0.084,��,13.4,��
2020/11/08,19:00,0.180,0.158,0.260,0.245,0.246,0.140,0.084,���k��,12.0,��
2020/11/08,19:10,0.180,0.158,0.257,0.245,0.245,0.140,0.084,���k��,10.9,��
2020/11/08,19:20,0.180,0.159,0.259,0.246,0.245,0.140,0.085,���k��,11.2,��
2020/11/08,19:30,0.180,0.159,0.260,0.245,0.246,0.141,0.085,���k��,8.7,��
2020/11/08,19:40,0.179,0.159,0.257,0.246,0.245,0.139,0.084,��,10.4,��
2020/11/08,19:50,0.180,0.159,0.259,0.245,0.247,0.141,0.085,��,8.7,��
2020/11/08,20:00,0.179,0.160,0.259,0.244,0.246,0.140,0.085,���k��,7.8,��
2020/11/08,20:10,0.179,0.159,0.259,0.245,0.246,0.141,0.085,���k��,8.2,��
2020/11/08,20:20,0.179,0.159,0.259,0.243,0.244,0.141,0.085,��,10.3,��
2020/11/08,20:30,0.180,0.159,0.259,0.246,0.245,0.141,0.085,���k��,12.0,��
2020/11/08,20:40,0.180,0.159,0.259,0.245,0.244,0.140,0.084,���k��,9.5,��
2020/11/08,20:50,0.179,0.158,0.258,0.246,0.245,0.140,0.084,��,8.4,��
2020/11/08,21:00,0.181,0.158,0.260,0.244,0.246,0.140,0.085,���k��,10.1,��
2020/11/08,21:10,0.178,0.159,0.259,0.244,0.244,0.140,0.084,���k��,11.5,��
2020/11/08,21:20,0.179,0.158,0.259,0.245,0.246,0.140,0.085,��,10.7,��
2020/11/08,21:30,0.181,0.159,0.259,0.244,0.245,0.141,0.084,��,13.4,��
2020/11/08,21:40,0.180,0.158,0.259,0.244,0.245,0.140,0.084,��,15.8,��
2020/11/08,21:50,0.180,0.159,0.257,0.245,0.246,0.139,0.084,���k��,14.5,��
2020/11/08,22:00,0.179,0.160,0.259,0.244,0.244,0.141,0.084,���k��,15.0,��
2020/11/08,22:10,0.180,0.159,0.258,0.245,0.245,0.141,0.085,��,16.2,��
2020/11/08,22:20,0.179,0.158,0.260,0.244,0.245,0.141,0.085,���k��,16.2,��
2020/11/08,22:30,0.180,0.159,0.259,0.244,0.247,0.140,0.085,��,17.2,��
2020/11/08,22:40,0.181,0.158,0.258,0.246,0.246,0.141,0.085,��,17.4,��
2020/11/08,22:50,0.179,0.159,0.259,0.245,0.246,0.141,0.084,���k��,13.1,��
2020/11/08,23:00,0.181,0.158,0.259,0.246,0.246,0.140,0.085,���k��,14.0,��
2020/11/08,23:10,0.181,0.159,0.259,0.247,0.245,0.141,0.084,��,11.8,��
2020/11/08,23:20,0.180,0.159,0.260,0.245,0.246,0.139,0.086,���k��,10.3,��
2020/11/08,23:30,0.180,0.160,0.260,0.245,0.246,0.140,0.085,��,6.4,��
2020/11/08,23:40,0.181,0.159,0.260,0.246,0.245,0.141,0.084,�k��,5.6,��
2020/11/08,23:50,0.180,0.159,0.259,0.245,0.247,0.140,0.085,�k�k��,3.9,��
